Location: Moscow
(55.7500°N, 37.5830°E)
Time: 16:36:32
(UTC+03:00)

Transit 2A - Pass Details

Date: 02 December 2021
Orbit: 591 x 967 km, 66.7° (Epoch: 17 January)

Event Time Altitude Azimuth Distance (km) Brightness Sun altitude
Rises 08:03:00 0° 313° (NW) 3,623 - -4.6°
Exits shadow 08:04:16 - 315° (NW) 3,168 8.5 -4.5°
Reaches altitude 10° 08:05:36 10° 317° (NW) 2,698 8.2 -4.3°
Maximum altitude 08:11:56 62° 38° (NE) 1,089 6.9 -3.6°
Drops below altitude 10° 08:18:12 10° 118° (ESE) 2,673 10.8 -2.9°
Sets 08:20:44 0° 122° (ESE) 3,586 12.6 -2.6°
